This is the latest recevied weather packets stored in our database for station/object KD0SBN. If no packets are shown the sender has not sent any weather packets the latest 10 day(s).
| Time | Temp. | Humidity | Pressure | Rain* | Wind** | Luminosity | Snow |
|---|---|---|---|---|---|---|---|
| 1777843096 | 26.67° C | 17% | 1012 hPa | 0 mm | - | - | - |
| 1777842793 | 25.56° C | 17% | 1012.1 hPa | 0 mm | - | - | - |
| 1777842493 | 26.11° C | 17% | 1012.3 hPa | 0 mm | - | - | - |
| 1777842192 | 25.56° C | 18% | 1012.1 hPa | 0 mm | - | - | - |
| 1777841886 | 25.56° C | 20% | 1012.3 hPa | 0 mm | - | - | - |
| 1777841583 | 25° C | 18% | 1012.4 hPa | 0 mm | - | - | - |
| 1777841279 | 25.56° C | 20% | 1012.7 hPa | 0 mm | - | - | - |
| 1777840978 | 25.56° C | 18% | 1012.8 hPa | 0 mm | - | - | - |
| 1777840675 | 25.56° C | 18% | 1012.7 hPa | 0 mm | - | - | - |
| 1777840372 | 25° C | 19% | 1012.9 hPa | 0 mm | - | - | - |
| 1777840068 | 25° C | 18% | 1012.9 hPa | 0 mm | - | - | - |
| 1777839766 | 25.56° C | 18% | 1013.3 hPa | 0 mm | - | - | - |
| 1777839464 | 25.56° C | 19% | 1013.4 hPa | 0 mm | - | - | - |
| 1777839161 | 26.11° C | 19% | 1013.1 hPa | 0 mm | - | - | - |
| 1777838857 | 24.44° C | 20% | 1013.6 hPa | 0 mm | - | - | - |
| 1777838554 | 24.44° C | 19% | 1013.6 hPa | 0 mm | - | - | - |
| 1777838250 | 23.89° C | 20% | 1013.4 hPa | 0 mm | - | - | - |
| 1777837947 | 23.89° C | 21% | 1013.6 hPa | 0 mm | - | - | - |
| 1777837645 | 24.44° C | 21% | 1013.7 hPa | 0 mm | - | - | - |
| 1777837341 | 24.44° C | 20% | 1014 hPa | 0 mm | - | - | - |
| 1777837037 | 24.44° C | 20% | 1013.8 hPa | 0 mm | - | - | - |
| 1777836733 | 24.44° C | 21% | 1013.8 hPa | 0 mm | - | - | - |
| 1777836429 | 23.89° C | 20% | 1014.1 hPa | 0 mm | - | - | - |
| 1777836124 | 23.89° C | 20% | 1014.3 hPa | 0 mm | - | - | - |
| 1777835821 | 24.44° C | 19% | 1014.2 hPa | 0 mm | - | - | - |
* Rain latest hour (hover to see other rain measurements)
** Current wind speed in m/s (hover to see current wind gust speed)